Madisonville, KY

7:29 AM CDT on October 24, 2017 (GMT -0500)
Madisonville

Weather History for K2I0 - November, 2012

Change the Weather History Date:

Tuesday, November 6, 2012

  Actual Average (KOWB) Record (KOWB)
Temperature  
Mean Temperature 44 °F -  
Max Temperature 51 °F 57 °F 78 °F (1938)
Min Temperature 38 °F 35 °F 19 °F (1936)
Degree Days  
Heating Degree Days 20    
Moisture  
Dew Point 41 °F    
Average Humidity 87    
Maximum Humidity 100    
Minimum Humidity 63    
Precipitation  
Precipitation 0.02 in - - ()
Sea Level Pressure  
Sea Level Pressure 30.00 in    
Wind  
Wind Speed 2 mph ()    
Max Wind Speed 8 mph    
Max Gust Speed -    
Visibility 7.3 miles    
Events Rain    
Averages and records for this station are not official NWS values.
T = Trace of Precipitation, MM = Missing Value Source: Averaged Metar Reports

Daily Weather History Graph

Daily Weather History Graph

Search for Another Location

Airport or City:

Trip Planner

Search our weather history database for the weather conditions in past years. The results will help you decide how hot, cold, wet, or windy it might be!

Date:

Astronomy

Nov. 06, 2012 Rise Set
Actual Time 6:19 AM CST 4:46 PM CST
Civil Twilight 5:52 AM CST 5:13 PM CST
Nautical Twilight 5:21 AM CST 5:44 PM CST
Astronomical Twilight 4:50 AM CST 6:15 PM CST
Moon 11:23 PM CST (11/6) 12:12 PM CST (11/6)
Length of Visible Light 11h 20m
Length of Day
10h 26m
Waning Gibbous, 53% of the Moon is Illuminated
Nov 6
Waning Gibbous
Nov 6
Last Quarter
Nov 13
New
Nov 20
First Quarter
Nov 28
Full

Hourly Weather History & Observations

Time (CST) Temp. Windchill Dew Point Humidity Pressure Visibility Wind Dir Wind Speed Gust Speed Precip Events Conditions
12:15 AM 41.7 °F - 39.2 °F 91% 30.05 in 10.0 mi Calm Calm - N/A   Overcast
12:35 AM 41.4 °F - 39.4 °F 93% 30.05 in 7.0 mi Calm Calm - N/A   Overcast
12:55 AM 41.4 °F - 39.9 °F 95% 30.05 in 7.0 mi Calm Calm - N/A   Mostly Cloudy
1:15 AM 41.2 °F - 39.6 °F 94% 30.05 in 10.0 mi Calm Calm - N/A   Overcast
1:35 AM 40.5 °F - 39.2 °F 95% 30.05 in 7.0 mi Calm Calm - N/A   Overcast
1:55 AM 40.1 °F - 39.2 °F 97% 30.05 in 5.0 mi Calm Calm - N/A   Scattered Clouds
2:15 AM 39.2 °F - 38.7 °F 98% 30.05 in 5.0 mi Calm Calm - N/A   Clear
2:35 AM 39.6 °F 37.4 °F 38.7 °F 97% 30.04 in 7.0 mi NNW 3.5 mph - N/A   Clear
2:55 AM 39.4 °F 35.2 °F 38.5 °F 97% 30.04 in 5.0 mi NNW 5.8 mph - N/A   Scattered Clouds
3:35 AM 38.3 °F - 37.6 °F 97% 30.04 in 4.0 mi Calm Calm - N/A   Overcast
3:55 AM 38.3 °F - 37.8 °F 98% 30.04 in 5.0 mi Calm Calm - N/A   Overcast
4:15 AM 39.0 °F - 38.5 °F 98% 30.04 in 5.0 mi Calm Calm - N/A   Overcast
4:35 AM 40.1 °F - 39.4 °F 97% 30.04 in 5.0 mi Calm Calm - N/A   Overcast
4:55 AM 40.3 °F - 39.2 °F 96% 30.04 in 5.0 mi Calm Calm - N/A   Overcast
5:15 AM 40.5 °F - 39.4 °F 96% 30.03 in 5.0 mi Calm Calm - N/A   Overcast
5:35 AM 40.3 °F - 39.4 °F 97% 30.03 in 5.0 mi Calm Calm - N/A   Overcast
6:15 AM 41.0 °F - 39.7 °F 95% 30.03 in 5.0 mi Calm Calm - N/A   Overcast
6:35 AM 41.0 °F - 39.9 °F 96% 30.03 in 4.0 mi Calm Calm - N/A   Overcast
6:55 AM 41.2 °F 38.2 °F 39.7 °F 95% 30.04 in 5.0 mi North 4.6 mph - N/A   Overcast
7:15 AM 41.5 °F - 39.6 °F 93% 30.05 in 7.0 mi Calm Calm - N/A   Overcast
7:35 AM 41.9 °F - 39.4 °F 91% 30.05 in 7.0 mi Calm Calm - N/A   Overcast
7:55 AM 42.3 °F - 39.4 °F 90% 30.05 in 7.0 mi Calm Calm - N/A   Overcast
8:15 AM 42.3 °F - 39.2 °F 89% 30.06 in 7.0 mi Calm Calm - N/A   Overcast
8:35 AM 42.8 °F - 39.2 °F 87% 30.05 in 7.0 mi Calm Calm - N/A   Overcast
8:55 AM 43.2 °F - 39.7 °F 88% 30.06 in 7.0 mi Calm Calm - N/A   Overcast
9:15 AM 43.5 °F 40.9 °F 40.1 °F 88% 30.07 in 7.0 mi WNW 4.6 mph - N/A   Overcast
9:35 AM 44.2 °F - 39.7 °F 84% 30.06 in 7.0 mi Calm Calm - N/A   Light Drizzle
9:55 AM 46.0 °F - 41.2 °F 83% 30.06 in 7.0 mi Calm Calm - N/A   Light Drizzle
10:15 AM 47.3 °F - 41.2 °F 79% 30.05 in 10.0 mi WNW 3.5 mph - N/A   Overcast
10:35 AM 48.7 °F - 41.0 °F 75% 30.04 in 10.0 mi West 3.5 mph - N/A   Overcast
10:55 AM 49.6 °F - 41.2 °F 73% 30.04 in 10.0 mi Calm Calm - N/A   Overcast
11:15 AM 50.2 °F - 40.1 °F 68% 30.03 in 10.0 mi WNW 3.5 mph - N/A   Overcast
11:35 AM 50.9 °F - 39.4 °F 65% 30.02 in 10.0 mi West 3.5 mph - N/A   Overcast
11:55 AM 51.1 °F - 40.1 °F 66% 30.01 in 10.0 mi West 5.8 mph - N/A   Overcast
12:15 PM 51.1 °F - 39.4 °F 64% 30.00 in 10.0 mi West 3.5 mph - N/A   Overcast
12:35 PM 51.1 °F - 38.7 °F 63% 30.00 in 10.0 mi West 5.8 mph - N/A   Overcast
12:55 PM 51.6 °F - 40.5 °F 66% 29.99 in 10.0 mi WNW 5.8 mph - N/A   Overcast
1:15 PM 51.1 °F - 38.7 °F 63% 29.99 in 10.0 mi West 5.8 mph - N/A   Overcast
1:35 PM 50.9 °F - 40.5 °F 67% 29.98 in 10.0 mi West 8.1 mph - N/A   Overcast
1:55 PM 50.9 °F - 39.6 °F 65% 29.97 in 10.0 mi West 6.9 mph - N/A Rain Light Rain
2:15 PM 50.0 °F - 40.8 °F 71% 29.97 in 10.0 mi West 8.1 mph - N/A   Overcast
2:35 PM 49.3 °F - 41.2 °F 74% 29.97 in 10.0 mi WSW 5.8 mph - N/A   Overcast
2:55 PM 48.9 °F - 41.9 °F 77% 29.96 in 10.0 mi WSW 3.5 mph - N/A Rain Light Rain
3:15 PM 49.1 °F - 41.4 °F 75% 29.96 in 10.0 mi Calm Calm - N/A   Overcast
3:35 PM 49.3 °F - 41.4 °F 74% 29.96 in 10.0 mi Calm Calm - N/A   Overcast
3:55 PM 49.1 °F - 41.0 °F 74% 29.95 in 10.0 mi SSW 3.5 mph - N/A   Overcast
4:15 PM 48.6 °F - 40.8 °F 75% 29.95 in 10.0 mi SW 3.5 mph - N/A   Overcast
4:35 PM 48.4 °F - 40.5 °F 74% 29.95 in 10.0 mi SW 3.5 mph - N/A   Overcast
4:55 PM 48.2 °F - 40.8 °F 76% 29.95 in 10.0 mi Calm Calm - N/A   Overcast
5:15 PM 47.5 °F - 42.1 °F 82% 29.96 in 10.0 mi WSW 3.5 mph - N/A   Overcast
5:35 PM 47.3 °F - 42.3 °F 83% 29.96 in 10.0 mi SW 3.5 mph - N/A   Drizzle
5:55 PM 46.9 °F - 42.8 °F 86% 29.96 in 10.0 mi WSW 4.6 mph - N/A   Light Drizzle
6:15 PM 46.8 °F - 43.2 °F 87% 29.97 in 10.0 mi SW 4.6 mph - N/A   Drizzle
6:35 PM 46.4 °F 43.5 °F 43.9 °F 91% 29.97 in 10.0 mi WSW 5.8 mph - N/A Rain Rain
6:55 PM 46.4 °F 44.3 °F 44.1 °F 92% 29.97 in 7.0 mi WSW 4.6 mph - N/A Rain Rain
7:15 PM 46.0 °F 43.9 °F 44.6 °F 95% 29.97 in 7.0 mi WSW 4.6 mph - N/A   Drizzle
7:35 PM 45.9 °F - 44.6 °F 95% 29.96 in 7.0 mi Calm Calm - N/A   Overcast
7:55 PM 45.7 °F 44.4 °F 44.8 °F 97% 29.96 in 7.0 mi SW 3.5 mph - N/A   Overcast
8:15 PM 45.5 °F 44.2 °F 45.0 °F 98% 29.96 in 5.0 mi WSW 3.5 mph - N/A   Light Drizzle
8:35 PM 45.5 °F 43.2 °F 45.0 °F 98% 29.96 in 5.0 mi WSW 4.6 mph - 0.01 in   Drizzle
8:55 PM 45.7 °F 43.4 °F 45.0 °F 97% 29.96 in 5.0 mi WSW 4.6 mph - 0.01 in Rain Rain
9:15 PM 45.7 °F 43.4 °F 45.1 °F 98% 29.96 in 5.0 mi WSW 4.6 mph - N/A Rain Light Rain
9:35 PM 45.5 °F 43.2 °F 45.3 °F 99% 29.95 in 5.0 mi WSW 4.6 mph - N/A Rain Light Rain
9:55 PM 45.5 °F 44.2 °F 45.5 °F 100% 29.95 in 4.0 mi WSW 3.5 mph - 0.01 in   Light Drizzle
10:15 PM 45.5 °F 44.2 °F 45.5 °F 100% 29.94 in 2.5 mi WSW 3.5 mph - N/A Rain Light Rain
10:35 PM 45.5 °F 44.2 °F 45.5 °F 100% 29.94 in 2.5 mi WSW 3.5 mph - N/A   Drizzle
10:55 PM 45.5 °F 43.2 °F 45.5 °F 100% 29.93 in 3.0 mi WSW 4.6 mph - N/A   Overcast
11:15 PM 45.7 °F 44.4 °F 45.7 °F 100% 29.93 in 4.0 mi WSW 3.5 mph - N/A   Overcast
11:35 PM 45.9 °F 44.6 °F 45.9 °F 100% 29.93 in 4.0 mi WSW 3.5 mph - N/A   Overcast
11:55 PM 45.9 °F - 45.9 °F 100% 29.92 in 3.0 mi Calm Calm - N/A   Overcast